Tracking 20719 objects as of 26-May-2020
HD Live streaming from Space Station
objects crossing your sky now

USA 143

Track USA 143 now!
10-day predictions
USA 143 is classified as:


NORAD ID: 25724
Int'l Code: 1999-023A
Perigee: 1,108.6 km
Apogee: 5,151.4 km
Inclination: 28.2 °
Period: 153.6 minutes
Semi major axis: 9501 km
RCS: Unknown
Launch date: April 30, 1999
Source: United States (US)
Launch site: AIR FORCE EASTERN TEST RANGE (AFETR)
aabbcc
Your satellite tracking list
Your tracking list is empty




NASA's NSSDC Master Catalog

Two Line Element Set (TLE):
1 25724U 99023A   20094.82646416 0.00000000  00000-0  00000-0 0    08
2 25724  28.2370   2.2508 2127578 358.8694   1.1301  9.37450333    09
Source of the keplerian elements: McCants